Temp
-10 -10 -11 -11 -12 -12 -13 -11 -11 -12 -12 -11 -11 -10 -10 -11 -11 -11 -10 -9 -9 -9 -9 -9 -9 -9 -10 -9 -9 -9 -9 -9 -9 -9 -9 -9 -9 -10 -9 -9 -10 -10 -10
-12 -12 -12 -12 -12 -13 -13 -13 -12 -12 -12 -12 -11 -11 -10 -11 -12 -11 -10 -10 -9 -9 -9 -9 -10 -10 -10 -10 -10 -9 -9 -9 -9 -9 -9 -10 -10 -10 -10 -10 -10 -10 -10
-13 -14 -13 -13 -13 -14 -14 -14 -13 -12 -12 -13 -12 -12 -12 -11 -11 -12 -11 -11 -10 -10 -9 -9 -9 -9 -10 -10 -10 -10 -10 -10 -10 -10 -10 -11 -11 -10 -10 -10 -10 -10 -10
-14 -14 -14 -14 -15 -15 -14 -14 -13 -13 -13 -13 -12 -12 -12 -11 -11 -11 -11 -11 -10 -9 -9 -10 -10 -10 -10 -10 -10 -10 -10 -10 -10 -10 -11 -11 -11 -11 -11 -11 -10 -10 -11
-13 -15 -15 -15 -15 -14 -14 -14 -13 -13 -13 -12 -12 -12 -12 -12 -12 -12 -12 -11 -10 -10 -10 -10 -10 -10 -10 -10 -11 -11 -11 -11 -11 -11 -11 -11 -11 -11 -11 -11 -11 -11 -11
-13 -15 -15 -15 -15 -15 -14 -14 -12 -13 -12 -12 -12 -12 -12 -11 -12 -12 -12 -12 -11 -11 -11 -10 -10 -10 -11 -11 -11 -11 -11 -11 -11 -11 -11 -11 -11 -12 -11 -12 -12 -12 -12
-14 -14 -15 -14 -15 -14 -13 -13 -13 -11 -13 -13 -13 -13 -12 -12 -12 -12 -12 -12 -12 -12 -12 -11 -11 -11 -11 -11 -12 -11 -11 -11 -11 -11 -12 -12 -12 -12 -12 -12 -12 -12 -12
-13 -14 -14 -15 -14 -14 -13 -12 -12 -13 -13 -13 -13 -13 -13 -12 -12 -11 -11 -12 -13 -12 -11 -11 -11 -11 -11 -12 -11 -12 -12 -12 -12 -12 -12 -12 -13 -13 -12 -12 -12 -12 -12
-14 -14 -14 -14 -14 -13 -13 -13 -12 -13 -13 -13 -13 -12 -12 -12 -12 -11 -12 -12 -12 -12 -11 -11 -11 -11 -12 -12 -12 -12 -12 -12 -12 -13 -13 -13 -13 -13 -13 -13 -13 -13 -13
-14 -14 -14 -14 -14 -13 -13 -12 -13 -13 -13 -13 -12 -12 -12 -12 -12 -12 -12 -12 -12 -13 -12 -12 -11 -12 -12 -11 -12 -12 -12 -12 -12 -13 -14 -14 -13 -13 -13 -13 -13 -13 -13
-14 -14 -14 -14 -13 -13 -13 -13 -13 -13 -13 -13 -12 -12 -11 -12 -12 -11 -12 -12 -12 -12 -12 -12 -11 -12 -12 -11 -12 -12 -12 -12 -12 -13 -13 -14 -14 -14 -14 -14 -13 -13 -14
-13 -13 -14 -14 -14 -13 -13 -13 -13 -13 -13 -13 -12 -11 -12 -12 -12 -12 -12 -12 -12 -12 -12 -12 -12 -11 -12 -12 -12 -12 -12 -12 -12 -12 -13 -13 -14 -14 -14 -14 -14 -14 -14
-13 -13 -13 -14 -14 -14 -13 -13 -13 -13 -13 -13 -12 -12 -12 -12 -12 -12 -11 -11 -12 -12 -12 -12 -12 -12 -12 -12 -12 -12 -12 -12 -12 -12 -12 -13 -14 -14 -14 -14 -14 -14 -14
-13 -13 -13 -13 -13 -13 -14 -14 -14 -14 -14 -13 -12 -11 -11 -12 -12 -12 -12 -12 -12 -12 -12 -12 -12 -12 -12 -12 -12 -12 -12 -12 -12 -12 -12 -13 -15 -15 -15 -15 -15 -15 -14
-12 -13 -13 -13 -13 -13 -14 -13 -13 -13 -13 -12 -12 -12 -11 -11 -11 -11 -12 -12 -12 -11 -12 -12 -11 -12 -12 -12 -13 -13 -12 -12 -13 -13 -13 -14 -15 -16 -15 -15 -15 -15 -15
-12 -13 -13 -13 -13 -13 -13 -13 -14 -13 -13 -12 -12 -11 -11 -11 -11 -12 -12 -12 -12 -11 -12 -11 -11 -12 -12 -12 -12 -13 -13 -13 -13 -13 -14 -15 -16 -16 -16 -16 -15 -15 -15
-12 -12 -12 -13 -13 -13 -13 -13 -13 -13 -13 -12 -12 -12 -12 -11 -12 -12 -12 -12 -12 -12 -12 -11 -11 -12 -12 -12 -12 -13 -13 -13 -14 -14 -15 -16 -16 -16 -16 -16 -15 -15 -14
-13 -12 -12 -12 -13 -13 -13 -12 -13 -13 -13 -13 -12 -12 -12 -12 -12 -12 -12 -12 -12 -12 -12 -12 -12 -13 -13 -13 -13 -13 -13 -14 -15 -15 -17 -17 -16 -16 -16 -16 -16 -15 -15
-13 -13 -13 -13 -13 -13 -12 -12 -12 -13 -14 -13 -13 -12 -12 -12 -12 -12 -12 -12 -12 -13 -12 -12 -12 -13 -14 -13 -13 -13 -14 -15 -16 -16 -17 -17 -17 -17 -16 -17 -16 -15 -15
-14 -14 -13 -13 -12 -12 -12 -12 -12 -13 -13 -14 -13 -13 -12 -13 -12 -13 -13 -13 -13 -13 -13 -13 -13 -14 -14 -14 -13 -14 -15 -16 -16 -17 -17 -16 -17 -17 -17 -16 -15 -15 -15
-15 -14 -13 -13 -12 -12 -13 -13 -13 -13 -13 -14 -13 -13 -13 -13 -13 -13 -13 -13 -13 -13 -14 -13 -14 -14 -14 -13 -14 -15 -15 -16 -17 -17 -17 -17 -17 -17 -16 -16 -15 -16 -15
-15 -14 -14 -13 -13 -13 -13 -13 -13 -13 -14 -13 -13 -13 -13 -14 -14 -14 -14 -14 -14 -14 -14 -14 -15 -14 -14 -14 -15 -15 -16 -16 -16 -16 -17 -17 -17 -16 -16 -16 -16 -16 -15
-14 -14 -14 -14 -14 -14 -13 -14 -13 -13 -13 -13 -13 -14 -14 -14 -14 -14 -14 -14 -14 -14 -14 -14 -14 -14 -14 -15 -16 -16 -17 -17 -16 -16 -16 -17 -17 -16 -16 -16 -16 -16 -15
-14 -13 -14 -14 -14 -13 -14 -14 -14 -13 -13 -13 -14 -14 -14 -14 -14 -14 -14 -14 -14 -14 -14 -14 -14 -14 -15 -16 -16 -17 -16 -16 -16 -16 -16 -16 -16 -16 -16 -16 -15 -15 -15
-13 -13 -14 -14 -14 -14 -13 -14 -14 -14 -13 -13 -13 -14 -14 -14 -14 -14 -14 -14 -14 -14 -15 -15 -15 -15 -15 -15 -16 -16 -16 -16 -16 -16 -17 -16 -16 -16 -16 -16 -16 -16 -16
-14 -14 -14 -14 -14 -14 -13 -13 -13 -14 -13 -13 -13 -13 -14 -13 -14 -14 -14 -14 -14 -14 -15 -15 -15 -15 -15 -15 -16 -16 -16 -16 -17 -16 -16 -16 -16 -17 -16 -16 -16 -16 -16
Height
5803 5804 5806 5806 5805 5806 5809 5813 5813 5815 5816 5818 5821 5826 5829 5830 5834 5837 5841 5842 5842 5843 5845 5845 5846 5848 5849 5849 5850 5850 5853 5853 5855 5854 5854 5854 5854 5854 5854 5854 5854 5854 5853
5797 5796 5798 5800 5800 5801 5803 5807 5808 5811 5812 5815 5817 5820 5823 5827 5829 5831 5837 5838 5838 5841 5843 5844 5845 5845 5846 5846 5847 5848 5850 5851 5851 5852 5851 5852 5853 5853 5853 5853 5852 5852 5852
5791 5791 5790 5792 5793 5794 5797 5801 5804 5806 5809 5811 5813 5816 5820 5824 5826 5827 5832 5835 5836 5838 5840 5842 5842 5843 5845 5844 5845 5847 5847 5848 5849 5849 5850 5851 5852 5852 5851 5850 5851 5850 5851
5787 5786 5783 5785 5789 5790 5791 5795 5799 5801 5803 5807 5810 5812 5815 5818 5822 5824 5827 5832 5833 5835 5837 5840 5839 5839 5841 5842 5843 5843 5845 5845 5846 5847 5848 5849 5849 5849 5848 5847 5847 5847 5848
5782 5780 5777 5779 5783 5783 5783 5787 5790 5794 5797 5800 5804 5809 5812 5814 5816 5820 5824 5829 5831 5832 5834 5835 5836 5836 5837 5840 5841 5842 5842 5844 5845 5845 5846 5846 5846 5846 5846 5845 5847 5846 5846
5777 5774 5770 5771 5773 5775 5779 5779 5776 5782 5789 5795 5799 5803 5806 5808 5811 5814 5819 5824 5827 5829 5831 5832 5833 5833 5835 5837 5839 5840 5841 5842 5843 5842 5842 5843 5844 5844 5845 5845 5845 5846 5845
5771 5769 5764 5763 5767 5770 5768 5770 5770 5771 5781 5783 5791 5797 5800 5804 5805 5808 5813 5819 5822 5825 5828 5828 5831 5831 5832 5834 5836 5838 5838 5840 5840 5839 5839 5841 5842 5842 5843 5841 5843 5843 5843
5766 5761 5758 5760 5761 5762 5746 5767 5772 5773 5774 5777 5784 5789 5794 5799 5802 5804 5808 5813 5817 5821 5824 5825 5827 5828 5829 5831 5832 5834 5835 5835 5835 5835 5836 5838 5838 5839 5839 5839 5840 5840 5840
5763 5757 5754 5753 5757 5756 5758 5767 5768 5769 5772 5773 5779 5781 5787 5793 5794 5799 5800 5805 5811 5817 5821 5821 5823 5825 5826 5828 5829 5830 5831 5831 5831 5832 5834 5834 5834 5836 5837 5837 5837 5838 5838
5759 5755 5750 5749 5750 5755 5756 5759 5764 5768 5768 5770 5773 5778 5783 5787 5790 5793 5798 5802 5807 5812 5815 5817 5820 5821 5823 5824 5825 5826 5826 5827 5828 5828 5830 5830 5831 5832 5833 5833 5835 5834 5835
5754 5754 5750 5748 5746 5750 5752 5755 5758 5760 5763 5765 5765 5768 5775 5782 5784 5785 5793 5797 5801 5806 5810 5814 5816 5817 5818 5819 5820 5822 5823 5824 5825 5824 5824 5825 5826 5828 5829 5830 5830 5832 5833
5751 5751 5751 5748 5745 5748 5749 5751 5752 5755 5758 5758 5759 5759 5767 5774 5778 5783 5787 5793 5796 5800 5805 5809 5811 5813 5813 5815 5816 5818 5819 5819 5820 5821 5821 5821 5822 5824 5825 5827 5827 5828 5829
5748 5749 5748 5748 5747 5745 5746 5747 5750 5749 5748 5753 5754 5758 5760 5767 5773 5778 5781 5786 5790 5795 5800 5804 5806 5808 5809 5812 5812 5814 5814 5815 5815 5816 5815 5815 5816 5819 5822 5823 5824 5824 5825
5745 5744 5744 5743 5744 5744 5744 5744 5745 5745 5745 5746 5748 5744 5752 5760 5766 5772 5777 5782 5787 5791 5795 5798 5800 5803 5804 5806 5808 5809 5809 5809 5809 5810 5811 5812 5813 5815 5817 5818 5820 5820 5821
5743 5742 5740 5739 5738 5738 5738 5739 5739 5737 5737 5736 5737 5745 5752 5756 5760 5767 5772 5777 5781 5785 5789 5792 5796 5798 5799 5801 5802 5802 5803 5803 5804 5804 5805 5806 5808 5811 5813 5815 5815 5815 5816
5741 5740 5738 5736 5736 5735 5735 5735 5735 5732 5733 5731 5734 5739 5746 5751 5756 5762 5767 5771 5776 5780 5783 5786 5790 5792 5793 5797 5796 5797 5798 5798 5799 5799 5800 5802 5804 5806 5807 5809 5811 5811 5811
5736 5736 5736 5734 5733 5733 5732 5733 5732 5729 5730 5730 5733 5740 5745 5749 5753 5758 5762 5765 5769 5773 5776 5782 5785 5786 5789 5790 5792 5793 5793 5794 5795 5795 5797 5798 5800 5802 5804 5805 5807 5808 5809
5733 5733 5733 5732 5730 5728 5727 5727 5727 5728 5728 5729 5733 5738 5741 5745 5749 5753 5756 5758 5762 5768 5772 5776 5779 5781 5782 5784 5785 5787 5788 5787 5788 5790 5791 5793 5795 5797 5799 5802 5803 5804 5804
5729 5729 5729 5728 5725 5723 5722 5721 5722 5724 5725 5726 5729 5734 5737 5741 5745 5748 5750 5754 5760 5765 5766 5770 5774 5774 5775 5778 5780 5781 5782 5782 5783 5786 5788 5790 5792 5795 5797 5797 5798 5799 5799
5726 5726 5724 5723 5719 5718 5717 5718 5719 5721 5721 5724 5727 5730 5733 5738 5741 5744 5748 5754 5759 5759 5760 5765 5768 5769 5773 5774 5776 5776 5776 5777 5779 5780 5783 5785 5787 5790 5790 5792 5792 5793 5793
5724 5724 5722 5719 5715 5715 5715 5717 5717 5719 5720 5723 5725 5728 5730 5735 5738 5744 5747 5750 5753 5754 5756 5760 5763 5764 5767 5769 5770 5771 5772 5774 5775 5777 5778 5780 5783 5784 5785 5785 5786 5786 5786
5723 5722 5720 5717 5714 5714 5714 5715 5716 5718 5719 5722 5724 5727 5730 5733 5737 5740 5743 5746 5748 5751 5753 5756 5758 5760 5761 5763 5765 5767 5768 5770 5770 5773 5775 5777 5778 5779 5779 5779 5779 5780 5779
5721 5721 5719 5718 5716 5714 5715 5716 5715 5714 5716 5720 5724 5726 5728 5731 5734 5736 5739 5743 5745 5748 5749 5751 5754 5755 5757 5758 5761 5763 5763 5766 5767 5769 5770 5772 5772 5772 5773 5774 5774 5772 5771
5720 5719 5719 5718 5716 5715 5715 5715 5714 5713 5712 5715 5719 5722 5725 5728 5730 5733 5736 5738 5741 5743 5746 5747 5749 5750 5753 5754 5756 5757 5760 5761 5764 5765 5765 5767 5767 5767 5767 5766 5766 5764 5762
5719 5719 5718 5717 5715 5715 5716 5714 5714 5715 5713 5714 5717 5720 5722 5725 5727 5729 5733 5734 5736 5738 5740 5743 5744 5746 5747 5749 5752 5754 5756 5758 5759 5759 5760 5761 5761 5760 5759 5758 5757 5756 5754
5716 5717 5717 5716 5715 5714 5715 5715 5713 5715 5714 5713 5713 5719 5722 5723 5725 5726 5727 5729 5732 5733 5735 5738 5740 5742 5744 5748 5750 5750 5753 5754 5755 5754 5755 5755 5754 5754 5751 5752 5749 5747 5745
Wind_Speed
31 30 31 36 39 40 36 35 35 26 26 29 34 36 29 22 33 29 29 27 24 19 16 14 12 9 7 4 5 5 7 8 8 8 9 10 10 9 9 9 8 8 9
24 29 28 30 38 42 37 35 37 28 26 27 28 29 31 25 30 26 20 21 21 18 17 14 11 8 7 6 6 7 7 8 9 10 11 11 11 10 9 8 8 9 10
24 26 30 30 35 40 41 35 35 38 26 26 21 21 25 25 26 23 22 21 18 19 21 18 12 10 9 8 9 9 10 10 11 12 12 11 11 11 10 9 9 9 11
27 26 30 33 33 33 37 40 33 31 31 28 19 16 23 24 34 25 20 25 25 23 20 17 14 12 11 11 11 12 12 13 14 13 13 12 13 12 10 10 11 11 11
26 31 34 34 30 27 31 26 33 33 30 33 29 23 21 30 29 26 22 29 28 23 19 17 15 13 13 13 13 12 12 13 14 13 14 14 14 13 12 11 11 11 11
27 28 31 36 33 32 27 41 38 38 38 34 30 32 23 28 38 31 29 31 27 23 20 18 17 15 14 14 13 14 13 15 15 14 16 17 16 14 14 11 12 12 12
27 28 27 26 26 26 24 22 16 23 32 35 31 27 27 29 36 29 34 31 28 24 28 23 19 16 15 15 14 12 13 16 16 17 16 18 16 15 15 13 13 13 14
27 29 22 22 30 29 34 26 25 28 27 22 32 32 28 29 35 39 36 36 30 27 26 24 19 17 17 17 16 15 15 16 17 17 18 19 17 18 17 14 14 15 15
22 28 24 19 22 20 20 20 18 27 26 24 24 30 33 30 34 32 44 38 31 31 28 24 21 18 18 18 17 15 16 17 20 19 20 20 22 19 17 16 16 17 16
22 26 23 13 21 22 20 19 19 22 26 23 24 30 37 31 32 36 29 34 33 33 29 26 22 18 18 18 17 17 19 19 19 20 20 23 22 19 19 18 19 18 17
15 19 20 9 13 19 24 22 23 22 24 23 19 23 33 34 30 35 28 39 36 35 30 27 21 20 19 17 17 19 20 20 21 21 25 24 21 21 21 20 20 20 18
12 9 15 12 5 13 18 20 19 20 19 18 23 21 31 27 30 31 29 43 40 35 33 29 25 22 20 20 20 19 18 15 18 22 21 24 22 22 23 23 21 20 19
15 16 11 11 11 13 12 14 16 16 18 22 25 37 42 39 33 30 36 46 42 36 33 30 27 25 22 22 19 20 19 24 22 21 24 26 22 23 22 22 22 20 20
23 19 16 15 15 15 14 12 16 19 23 23 35 37 44 38 30 36 36 41 44 35 38 32 29 26 23 23 23 25 21 27 30 27 24 25 24 23 24 23 21 21 20
23 22 21 21 19 18 17 17 17 21 22 16 31 42 49 45 44 43 34 42 51 44 40 33 29 30 28 26 26 29 29 25 25 25 26 29 30 25 24 22 23 21 19
19 20 20 22 22 21 20 20 21 22 19 11 28 39 40 42 42 35 34 38 50 46 45 40 32 28 29 29 33 31 27 24 25 25 27 27 24 23 23 24 23 20 19
14 17 16 17 18 19 20 23 23 24 19 18 23 38 41 48 40 39 35 45 46 51 49 42 34 30 29 37 35 31 25 24 26 25 28 23 24 24 26 22 18 18 20
12 17 17 17 19 21 22 23 23 24 24 19 32 30 34 41 36 40 39 44 39 51 45 40 38 34 35 38 35 29 26 24 24 26 25 24 24 24 21 19 18 21 23
11 12 13 17 21 22 22 21 21 23 22 19 19 34 31 39 36 31 35 27 35 28 28 39 33 33 33 34 29 28 25 23 24 25 24 24 22 20 20 21 23 25 26
10 11 14 17 19 18 16 16 21 21 19 17 12 14 27 24 27 18 18 24 22 21 23 36 31 26 26 24 26 26 25 25 26 26 25 25 20 23 23 25 28 28 29
9 7 6 11 11 9 14 13 18 20 15 13 14 19 16 13 19 20 15 16 14 16 19 23 27 27 26 26 26 26 26 27 28 26 21 20 24 23 28 29 30 31 32
5 2 5 8 4 7 8 12 13 11 15 18 20 15 19 15 12 14 13 17 16 18 19 23 25 26 26 26 24 25 26 27 27 24 23 26 27 31 32 32 31 34 36
4 3 5 6 4 5 14 13 19 20 16 18 20 17 14 13 15 16 19 20 19 22 22 26 26 26 28 24 24 25 24 23 25 25 25 27 34 34 33 33 35 37 40
5 4 3 4 4 2 2 4 7 16 20 21 22 18 18 21 17 19 23 25 25 24 24 27 27 27 27 24 25 24 24 22 23 21 27 32 34 35 35 37 39 39 42
6 5 3 3 2 2 2 1 1 3 10 21 28 25 23 22 21 23 29 31 31 29 28 29 30 27 25 24 24 25 27 24 25 32 31 31 34 35 37 37 39 43 44
9 8 7 6 5 4 3 2 1 1 3 4 16 19 20 25 24 23 22 25 25 24 24 25 26 23 21 24 22 25 26 26 29 33 34 34 35 38 40 38 45 44 44
Wind_Direction
277 271 262 257 254 251 249 239 238 248 248 243 236 236 238 248 217 210 216 217 212 214 208 201 197 199 205 225 245 260 272 281 281 287 289 291 288 283 284 282 280 285 275
286 285 276 262 257 255 251 240 244 239 240 236 238 237 239 215 193 192 211 210 207 212 214 205 201 196 213 223 249 248 255 264 267 273 280 278 281 282 280 279 278 274 263
287 281 275 270 258 251 252 245 241 246 241 229 226 233 235 236 217 200 221 223 221 220 233 233 215 211 217 223 226 239 244 246 257 269 272 277 282 281 274 267 264 267 266
291 276 272 268 260 260 260 251 232 246 242 240 233 237 211 210 210 220 222 227 221 226 227 215 197 195 207 226 227 226 240 249 257 268 271 274 270 269 265 264 260 255 250
285 276 271 262 259 260 246 254 236 229 242 243 247 237 224 210 216 211 224 234 231 223 208 198 197 207 213 226 231 239 255 268 269 267 270 265 262 263 261 260 264 262 257
284 274 277 262 253 239 274 232 219 218 225 239 248 240 228 214 211 216 232 229 224 213 203 213 216 215 223 235 243 252 259 269 268 266 264 259 263 265 270 275 272 262 249
292 284 280 254 242 243 247 241 228 226 223 223 228 229 221 213 216 231 215 210 209 210 233 216 215 221 229 239 245 254 262 266 271 269 267 268 265 269 273 267 257 256 249
284 287 283 256 227 231 243 228 212 248 245 238 230 225 227 228 210 217 218 207 204 222 214 213 220 231 240 241 244 249 260 264 263 266 265 261 265 268 270 262 255 249 250
277 284 281 265 218 238 234 228 230 244 242 258 250 213 213 215 202 222 205 199 211 210 217 226 229 242 241 235 242 250 259 264 264 253 260 255 268 259 256 257 255 250 251
278 278 287 286 239 229 233 227 231 232 243 247 253 219 219 213 212 214 203 211 203 210 220 225 233 245 237 236 243 258 257 271 282 250 246 258 271 251 251 251 249 250 252
278 281 287 293 245 233 234 231 234 248 255 255 252 230 237 212 212 226 227 210 212 213 220 228 236 242 235 243 251 259 262 270 272 276 243 253 250 244 248 247 249 253 256
275 276 277 297 271 215 218 219 237 244 237 257 248 238 195 209 215 218 220 212 216 214 221 230 240 240 241 253 255 264 255 272 281 273 264 247 242 243 246 246 248 252 257
277 289 265 266 264 267 214 212 230 250 255 254 235 232 232 211 213 215 210 214 216 213 225 231 241 238 245 249 252 257 257 262 275 275 262 256 233 237 243 246 250 255 259
280 282 275 268 266 257 257 242 245 256 263 253 242 234 202 205 216 208 207 222 217 223 225 229 232 242 243 252 249 256 263 261 267 268 267 248 233 235 241 243 252 257 262
285 277 276 271 268 269 261 257 261 263 267 261 222 208 213 228 220 226 219 225 225 230 221 221 234 237 239 251 254 254 261 259 262 261 255 246 235 237 242 247 254 256 259
279 268 270 262 257 260 262 255 253 251 256 261 227 214 212 220 220 219 222 223 224 225 223 229 237 236 239 250 250 260 259 262 263 255 249 240 231 235 243 250 253 254 258
281 262 265 256 255 261 262 257 248 247 237 221 231 216 223 227 229 222 234 232 229 226 228 233 238 241 247 249 252 254 256 256 255 249 243 233 235 241 247 244 252 262 264
274 255 254 251 260 266 268 258 238 233 232 225 226 222 235 232 233 232 235 241 228 221 229 229 241 239 248 251 248 253 255 247 245 234 229 229 232 235 239 247 254 257 266
288 277 264 261 268 276 271 245 229 231 227 225 217 225 235 222 228 230 227 224 209 240 237 232 233 237 241 241 245 251 250 246 237 232 233 232 233 241 245 247 257 262 263
299 297 287 282 280 278 251 232 223 225 234 236 224 219 220 220 222 202 209 210 221 231 235 232 234 233 236 243 255 257 247 241 234 229 231 238 236 238 246 250 255 261 269
299 294 292 295 295 243 196 217 219 224 226 248 235 207 182 182 195 202 201 207 230 233 229 225 221 230 238 251 258 259 251 242 237 230 234 240 243 246 251 254 259 267 275
309 292 349 359 291 188 200 205 221 212 221 228 215 214 205 201 202 215 228 240 238 236 228 217 229 232 238 251 255 247 246 240 236 235 235 241 242 248 253 261 270 277 281
314 312 358 347 39 200 214 218 229 244 235 231 219 219 217 225 235 241 242 253 243 236 225 222 232 240 247 256 248 240 241 243 244 242 237 241 252 254 260 267 273 277 282
276 303 346 343 351 17 185 185 232 244 244 234 227 245 237 241 246 249 241 250 248 249 249 244 246 246 251 249 236 222 234 244 247 248 250 249 256 261 264 270 276 280 282
265 269 289 309 321 335 292 312 303 289 252 242 233 241 246 247 247 255 257 251 245 251 255 257 256 257 249 238 225 228 234 230 249 255 257 259 261 265 271 276 278 284 284
267 263 264 277 287 293 314 267 161 279 301 303 240 228 246 261 260 252 251 251 251 250 253 255 256 253 236 228 232 240 242 247 255 263 258 259 268 270 272 281 280 281 282